Regional Weather Roundup
Issued by NWS

Home | Current Version | Previous Version | Text Only | Print | Product List | Glossary On
Versions: 1 2 3 4 5 6 7 8 9 10 11 12 13 14 15 16 17 18 19 20 21 22 23 24 25 26 27 28 29 30 31 32 33 34 35 36 37 38 39 40 41 42 43 44 45 46 47 48 49 50
000
ASUS45 KBOU 210310
RWRCO

WEATHER ROUNDUP FOR COLORADO
NATIONAL WEATHER SERVICE DENVER/BOULDER CO
900 PM MDT FRI APR 20 2018

NOTE: "FAIR" INDICATES FEW OR NO CLOUDS BELOW 12000 FEET WITH NO
SIGNIFICANT WEATHER AND/OR OBSTRUCTIONS TO VISIBILITY.

COZ001>005-013-030-031-210400-
...NORTHWEST COLORADO...

CITY           SKY/WX    TMP DP  RH WIND       PRES   REMARKS
CRAIG          LGT RAIN  36  34  92 SW12      29.99S
HAYDEN         RAIN      34  33  96 SW8       30.01R WCI  27
MEEKER         LGT SNOW  33  32  96 CALM      30.04R VSB 3/4
RANGELY        DRIZZLE   39  37  93 W3        30.07R
RABBIT EARS PA SNOW      27  25  93 W10G16    30.01R VSB 1/2 WCI  17
STEAMBOAT SPGS CLOUDY    34  33  97 CALM      30.00R
WALDEN         CLOUDY    32  30  93 NW8       29.99R WCI  25
$$

COZ006>008-011-210400-
...WEST CENTRAL VALLEYS...

CITY           SKY/WX    TMP DP  RH WIND       PRES   REMARKS
GRAND JUNCTION LGT RAIN  42  38  85 E7        30.04R
MONTROSE       CLOUDY    42  27  55 NW13      30.08R
EAGLE          CLOUDY    38  28  67 W9        30.04R
RIFLE          LGT RAIN  37  35  92 SE5       30.06R
DELTA          CLOUDY    46  33  59 NW13G18   30.06R
NUCLA          CLOUDY    46  23  39 W3        30.07R
$$

COZ017>023-064>068-210400-
...SOUTHWEST COLORADO...

CITY           SKY/WX    TMP DP  RH WIND       PRES   REMARKS
DURANGO        FAIR      40  26  57 NW13      30.03R
CORTEZ         MOCLDY    39  28  64 NE7       30.07R
PAGOSA SPRINGS FAIR      36  21  55 CALM      30.03R
TELLURIDE      LGT SNOW  29  28  95 W6        30.10R WCI  23
WOLF CREEK PAS FAIR      18  14  86 SW8       30.12R WCI   7
$$

COZ009-010-012-014-032>034-037-058>063-210400-
...CENTRAL COLORADO...

CITY           SKY/WX    TMP DP  RH WIND       PRES   REMARKS
ASPEN          LGT SNOW  31  30  96 CALM      30.03R FOG
BUENA VISTA    LGT SNOW  34  28  80 N10       30.00R WCI  26
COPPER MTN     NOT AVBL
BERTHOUD PASS  CLOUDY    19  10  68 W3        30.03R
COTTONWOOD PAS FLURRIES  32  23  69 W10G22    30.00R WCI  24
GUNNISON       CLOUDY    35  24  64 E7        30.04R WCI  29
GRANBY         LGT RAIN  35  33  93 NW5       29.98R WCI  31
KREMMLING      FLURRIES  39  32  75 W13       29.99S
LEADVILLE      FLURRIES  25  20  81 NW12G18   30.00R WCI  14
MONARCH PASS   HVY SNOW  18  14  86 W39G46    30.10S VSB 1/4 WCI  -4
SALIDA         CLOUDY    37  26  62 SW6       30.06R
SUNLIGHT       CLOUDY    21  21 100 SW6       30.09R WCI  14
WILKERSON PASS LGT SNOW N/A N/A N/A CALM      30.05R
$$

COZ069>075-210400-
...SAN LUIS VALLEY/SANGRE DE CRISTO MOUNTAINS...

CITY           SKY/WX    TMP DP  RH WIND       PRES   REMARKS
ALAMOSA        FAIR      32  25  75 E3        30.02R
DEL NORTE      CLOUDY    32  25  75 W3        30.03R
LA VETA PASS   CLOUDY    25  19  80 SW13G20   30.13R WCI  13
SAGUACHE       NOT AVBL
$$

COZ035-036-038>040-210400-
...NORTHERN COLORADO FRONT RANGE...

CITY           SKY/WX    TMP DP  RH WIND       PRES   REMARKS
DENVER INTL AP CLOUDY    36  33  89 SE24G32   30.03R
AURORA         CLOUDY    37  37  99 SE18      30.02R
FRONT RANGE AP CLOUDY    37  36  93 SE25G32   30.04R FOG
ERIE MUNI ARPT CLOUDY    42  34  73 SE14      30.06R
BOULDER MUN AP RAIN      41  36  81 N8        30.00R
CENTENNIAL     CLOUDY    37  34  89 SE16G25   30.00R
BROOMFIELD     MOCLDY    41  36  81 SE14G20   30.00R
FORT COLLINS   LGT RAIN  37  36  93 NE9       30.08R
LONGMONT       CLOUDY    42  36  77 NE6       30.06R
$$

COZ041-046-047-076>085-087-088-210400-
...PIKES PEAK/PALMER DIVIDE AND SOUTHERN FOOTHILLS...

CITY           SKY/WX    TMP DP  RH WIND       PRES   REMARKS
COLO. SPRINGS  SNOW      33  33 100 SE9       30.07R VSB 1/2 WCI  25
A. F. ACADEMY  LGT SNOW  33  32  99 S10       30.05R FOG     WCI  24
SCHRIEVER AFB  NOT AVBL
CHEYENNE MTN   HVY SNOW  31  31 100 SW3       30.00R VSB 1/4
ELLICOTT       CLOUDY   N/A N/A N/A SE21G30   30.03R
FALCON         HVY SNOW  32  32 100 SE18G24   30.06R VSB<1/4 WCI  20
FORT CARSON    SNOW      33  32  99 N5        30.05R VSB 1/2 WCI  28
LIMON          CLOUDY    32  32 100 SE16      30.08R FOG     WCI  21
MONUMENT HILL  FOG       30  30 100 SE18      30.04R VSB 1/2 WCI  18
CANON CITY     CLOUDY    34  34 100 CALM      30.04R
WALSENBURG     NOT AVBL
TRINIDAD       FAIR      35  32  88 E10       29.98R WCI  27
$$

COZ042>045-048>051-090-091-210400-
...NORTHEAST COLORADO...

CITY           SKY/WX    TMP DP  RH WIND       PRES   REMARKS
GREELEY ARPT   CLOUDY    37  34  89 E18       30.08R
AKRON          CLOUDY    35  34  96 SE22G31   30.09R WCI  23
BURLINGTON     CLOUDY    39  37  92 SE18      30.09F
WRAY           LGT RAIN  39  39 100 E14G21    30.14S
YUMA           CLOUDY    36  34  93 E17G23    30.11S
STERLING       NOT AVBL
HOLYOKE        LGT RAIN  41  37  87 E18       30.16R
FORT MORGAN    CLOUDY    37  33  87 E16G23    30.10R
$$

COZ086-089-092>099-210400-
...SOUTHEAST COLORADO...

CITY           SKY/WX    TMP DP  RH WIND       PRES   REMARKS
PUEBLO         CLOUDY    43  35  73 E23G32    30.02R
LA JUNTA       CLOUDY    41  37  86 SE17G30   30.05R
LAMAR          LGT RAIN  41  38  89 E18G30    30.05R FOG
SPRINGFIELD      N/A     40  40 100 E16G26    30.02F
$$



USA.gov is the U.S. government's official web portal to all federal, state and local government web resources and services.